CUTE-1 (CO-55) 1 27844U 03031E 25351.57814299 .00000324 00000+0 15972-3 0 9998 2 27844 98.6762 357.4188 0009534 359.6280 0.4890 14.24183443165822 CUBESAT XI-IV (CO-57) 1 27848U 03031J 25351.47671991 .00000278 00000+0 14155-3 0 9991 2 27848 98.6791 357.1768 0009765 17.6835 342.4682 14.23490862165522 CUBESAT XI-V 1 28895U 05043F 25351.40415762 .00001462 00000+0 24129-3 0 9992 2 28895 98.2719 138.5607 0015265 64.5076 295.7708 14.71918269 75005 CUTE-1.7+APD II (CO-65) 1 32785U 08021C 25351.68477250 .00005656 00000+0 38073-3 0 9996 2 32785 97.8081 324.8433 0007829 290.5969 69.4418 15.07103756957832 CANX-2 1 32790U 08021H 25351.89083856 .00003947 00000+0 29150-3 0 9997 2 32790 97.8422 323.6008 0009623 301.7606 58.2681 15.03812267957545 SEEDS II (CO-66) 1 32791U 08021J 25351.88918659 .00013927 00000+0 55355-3 0 9990 2 32791 97.7442 337.2123 0001944 180.1538 179.9698 15.25425135959580 SWISSCUBE 1 35932U 09051B 25351.69864920 .00001095 00000+0 22833-3 0 9992 2 35932 98.4147 251.3681 0008027 61.0644 299.1360 14.61971711862634 BEESAT-1 1 35933U 09051C 25351.68631654 .00000924 00000+0 19708-3 0 9995 2 35933 98.4076 251.3575 0006536 73.5254 286.6664 14.61289942862676 ITUPSAT1 1 35935U 09051E 25351.65713655 .00000840 00000+0 18503-3 0 9995 2 35935 98.4166 250.7021 0008761 81.9694 278.2499 14.60044081862248 TISAT 1 1 36799U 10035E 25351.76883902 .00014152 00000+0 59333-3 0 9990 2 36799 98.0602 278.5284 0003882 122.4677 237.6934 15.23630450840002 AEROCUBE 4.5A 1 38767U 12048K 25351.59505626 .00042850 00000+0 71709-3 0 9995 2 38767 64.6426 302.8353 0065925 230.2717 129.2602 15.49160211344221 STRAND-1 1 39090U 13009E 25351.47402573 .00000320 00000+0 12210-3 0 9995 2 39090 98.3821 171.2442 0009603 58.1017 302.1103 14.37009120670960 BRITE-AUSTRIA 1 39091U 13009F 25351.75948530 .00000181 00000+0 76322-4 0 9995 2 39091 98.3887 170.7505 0011242 64.8002 295.4349 14.36438747671009 NEE-01 PEGASO 1 39151U 13018B 25351.31742006 .00002872 00000+0 28606-3 0 9994 2 39151 98.0957 124.9254 0013715 47.0123 313.2243 14.92379537683566 POPACS 1 1 39268U 13055D 25351.34154357 .00223692 15890-4 61075-3 0 9993 2 39268 80.9532 205.5822 0109776 29.6845 331.0586 15.84396592644300 POPACS 2 1 39269U 13055E 25351.41729088 .00018826 00000+0 33928-3 0 9990 2 39269 80.9934 351.2377 0447475 55.2120 309.0354 14.83584877636181 POPACS 3 1 39270U 13055F 25351.65712942 .00009038 00000+0 22462-3 0 9995 2 39270 81.0049 65.4335 0566842 261.3151 92.3469 14.51942232612174 ZACUBE-1 (TSHEPISOSAT) 1 39417U 13066B 25351.39749824 .00003280 00000+0 27002-3 0 9998 2 39417 97.8056 307.9496 0042001 132.1904 228.2897 14.99124350653477 WNISAT-1 1 39423U 13066H 25351.40030999 .00000765 00000+0 14770-3 0 9996 2 39423 97.6930 148.7879 0165443 84.5806 277.4242 14.57652168640244 TRITON-1 1 39427U 13066M 25351.98030287 .00002312 00000+0 28699-3 0 9998 2 39427 97.8319 260.9722 0093413 104.1674 256.9938 14.80515715647269 GOMX-1 1 39430U 13066Q 25351.87539161 .00001958 00000+0 30482-3 0 9993 2 39430 97.6588 198.6792 0129358 300.0133 58.8289 14.68609599643295 CUBEBUG-2 (LO-74) 1 39440U 13066AA 25351.56788106 .00003439 00000+0 33426-3 0 9992 2 39440 97.8708 295.2332 0058016 269.4523 90.0047 14.92015584649893 NEE-02 KRYSAOR 1 39441U 13066AB 25351.76100244 .00002517 00000+0 28598-3 0 9996 2 39441 97.8738 287.5718 0066127 305.4504 54.0549 14.85627194649256 FUNCUBE-1 (AO-73) 1 39444U 13066AE 25351.90398344 .00006707 00000+0 45536-3 0 9991 2 39444 97.8070 315.2456 0040989 98.9256 261.6614 15.06040842652348 UWE-3 1 39446U 13066AG 25351.84087866 .00002808 00000+0 25521-3 0 9990 2 39446 97.8482 302.1944 0049837 202.2067 157.6996 14.95146450650462 BRITE-CA1 (TORONTO) 1 40020U 14033L 25351.87362711 .00001148 00000+0 18099-3 0 9991 2 40020 97.9497 119.4939 0080155 136.7759 223.9776 14.72225989615531 DUCHIFAT-1 1 40021U 14033M 25351.64618218 .00031850 00000+0 77242-3 0 9991 2 40021 98.0781 23.9742 0007043 18.8207 341.3297 15.40977542627603 NANOSATC-BR1 1 40024U 14033Q 25351.77872017 .00013448 00000+0 54503-3 0 9995 2 40024 98.0893 3.8359 0005856 92.5420 267.6486 15.24777906626273 QB50P1 1 40025U 14033R 25351.44292485 .00007398 00000+0 40468-3 0 9997 2 40025 98.0962 345.3369 0010959 120.5378 239.6935 15.14542045625483 QB50P2 1 40032U 14033Y 25351.90895310 .00007638 00000+0 44963-3 0 9993 2 40032 98.0635 333.0528 0009713 75.2817 284.9488 15.11900655625241 PERSEUS-M2 1 40037U 14033AD 25351.90095186 .00001011 00000+0 98595-4 0 9991 2 40037 97.9751 294.0957 0011722 174.3976 185.7377 14.94713454623696 PERSEUS-M1 1 40039U 14033AF 25351.81832306 .00001400 00000+0 13419-3 0 9999 2 40039 97.9463 288.2935 0011751 172.5846 187.5550 14.94774254623538 POLYITAN-1 1 40042U 14033AJ 25351.53616203 .00014581 00000+0 57230-3 0 9991 2 40042 98.1075 356.5113 0010321 66.3205 293.9113 15.25798712625823 TIGRISAT 1 40043U 14033AK 25351.89296450 .00002007 00000+0 24169-3 0 9994 2 40043 97.7561 141.4591 0049242 310.3570 49.3349 14.84147964618727 AEROCUBE 6A 1 40045U 14033AM 25351.39988674 .00006363 00000+0 57322-3 0 9993 2 40045 97.7028 155.8017 0039483 263.9707 95.7014 14.95335279619422 AEROCUBE 6B 1 40046U 14033AN 25351.43729254 .00005678 00000+0 49562-3 0 9991 2 40046 97.7024 155.2803 0038138 256.1726 103.5250 14.96658265619544 CANX-4 1 40055U 14034C 25351.88914569 .00001053 00000+0 14395-3 0 9995 2 40055 98.3358 215.2954 0011798 230.8137 129.2027 14.80801431617692 CANX-5 1 40056U 14034D 25351.88962517 .00001054 00000+0 14403-3 0 9993 2 40056 98.3361 215.3288 0011791 231.1111 128.9049 14.80817571608509 UKUBE-1 1 40074U 14037F 25351.88923874 .00008649 00000+0 53899-3 0 9998 2 40074 98.4143 331.7231 0003304 68.3171 291.8407 15.09836150621167 BRITE-PL2 (HEWELIUSZ) 1 40119U 14049B 25351.75807026 .00001558 00000+0 15273-3 0 9993 2 40119 97.8993 97.6479 0014086 356.4655 3.6463 14.93677085614358 AEROCUBE 5C 1 40965U 15058B 25351.72201730 .00003475 00000+0 31423-3 0 9995 2 40965 64.7678 106.6081 0137186 134.2550 226.9920 14.90212707338605 AEROCUBE 7 1 40966U 15058C 25351.67456232 .00004369 00000+0 36203-3 0 9993 2 40966 64.7636 92.6410 0127437 133.8601 227.3128 14.94026318338824 FOX-1A (AO-85) 1 40967U 15058D 25351.84352342 .00003467 00000+0 32005-3 0 9994 2 40967 64.7748 122.0178 0134314 128.0290 233.3036 14.89703002 86540 SINOD-D 1 1 40968U 15058E 25351.73856849 .00004482 00000+0 37410-3 0 9997 2 40968 64.7758 106.4003 0122709 126.1458 235.1086 14.94142101 89535 SNAP-3 ALICE 1 40970U 15058G 25351.74580846 .00028981 00000+0 84469-3 0 9998 2 40970 64.7609 357.5091 0043983 117.3409 243.2212 15.34307108 88842 LMRST-SAT 1 40971U 15058H 25351.75398428 .00003285 00000+0 30501-3 0 9991 2 40971 64.7754 118.3029 0136781 129.8775 231.4461 14.89355190 86522 SNAP-3 EDDIE 1 40972U 15058J 25351.72561705 .00030709 00000+0 86907-3 0 9991 2 40972 64.7534 349.4224 0047043 121.3499 239.2251 15.35060173 90967 PROPCUBE 3 1 40973U 15058K 25351.68352024 .00004048 00000+0 34617-3 0 9997 2 40973 64.7696 98.9907 0129892 131.9305 229.2970 14.92742259 87694 BISONSAT 1 40974U 15058L 25351.83570858 .00008722 00000+0 48128-3 0 9997 2 40974 64.7623 37.8937 0086275 127.0406 233.8648 15.11349178 88166 SNAP-3 JIMI 1 40975U 15058M 25351.58517247 .00005143 00000+0 37508-3 0 9997 2 40975 64.7671 73.3333 0112199 130.0680 231.0343 14.99876790 86966 PROPCUBE 1 (FLORA) 1 40976U 15058N 25351.81385238 .00003321 00000+0 31954-3 0 9992 2 40976 64.7736 136.8694 0136174 132.0110 229.2692 14.88022247 89263 SINOD-D 3 1 40977U 15058P 25351.74507997 .00004718 00000+0 41008-3 0 9995 2 40977 64.7723 121.7183 0124735 130.7253 230.4774 14.92352712 87664 HORYU-4 1 41340U 16012D 25351.83195449 .00041567 00000+0 68404-3 0 9998 2 41340 30.9944 275.0061 0006939 283.2220 76.7655 15.51053920542345 RAVAN 1 41849U 16067B 25351.59465847 .00025462 00000+0 64691-3 0 9997 2 41849 98.0159 217.1929 0005808 293.3499 66.7134 15.39616788499622 CELTEE 1 1 41850U 16067C 25351.54710335 .00005442 00000+0 27680-3 0 9992 2 41850 98.0873 200.7343 0002049 104.4846 255.6613 15.17309310498319 OPTICUBE 04 1 41851U 16067D 25351.80980221 .00002207 00000+0 14533-3 0 9994 2 41851 98.0824 189.5381 0016476 15.9471 344.2271 15.08584433497811 AEROCUBE 8D 1 41852U 16067E 25351.87717140 .00007559 00000+0 34281-3 0 9997 2 41852 98.0895 203.3761 0004908 51.7222 308.4453 15.21143217498479 AEROCUBE 8C 1 41853U 16067F 25351.53421304 .00007726 00000+0 34837-3 0 9998 2 41853 98.0756 200.4859 0005429 343.8180 16.2879 15.21331396498416 CORVUS BC2 1 42846U 17042X 25351.89155532 .00003238 00000+0 23339-3 0 9990 2 42846 97.3830 155.6911 0013956 16.8818 343.2870 15.04755339459782 CORVUS BC1 1 42847U 17042Y 25351.44593441 .00002867 00000+0 20588-3 0 9997 2 42847 97.3876 155.9484 0012160 358.7104 1.4089 15.05002351459744 MAKERSAT 0 1 43016U 17073D 25351.65119881 .00015800 00000+0 52872-3 0 9997 2 43016 97.4895 228.5512 0125931 193.9150 165.8606 15.23658154438740 SIRION PATHFINDER-2 1 43759U 18099B 25351.70788186 .00004501 00000+0 26281-3 0 9997 2 43759 97.4539 40.0643 0008543 199.0270 161.0643 15.12388288385173 CORVUS BC4 1 43767U 18099K 25351.68095910 .00004640 00000+0 28458-3 0 9991 2 43767 97.4348 34.9265 0007172 267.3916 92.6493 15.10596660384988 SPACEBEE-7 1 43816U 18099BL 25351.72282722 .00085005 00000+0 10654-2 0 9992 2 43816 97.4712 67.6441 0002940 148.3111 211.8323 15.59475779386305 SHIELDS 1 1 43850U 18104B 25351.79080996 .00117648 00000+0 46319-3 0 9990 2 43850 85.0065 260.0291 0008217 95.5274 264.6940 15.86502451391456 M2 PATHFINDER 1 45727U 20037E 25351.77185283 .00002042 00000+0 15401-3 0 9995 2 45727 97.8130 176.0542 0013497 51.4930 308.7503 15.03531516298225 NETSAT-4 1 46504U 20068U 25351.90608865 .00013753 00000+0 38292-3 0 9998 2 46504 97.8591 341.5524 0004366 238.7586 121.3229 15.36934317287865 NETSAT-3 1 46505U 20068V 25351.88802030 .00013235 00000+0 38582-3 0 9993 2 46505 97.8616 340.0420 0003966 263.4946 96.5844 15.35505644287797 NETSAT-1 1 46506U 20068W 25351.90047932 .00011594 00000+0 41132-3 0 9990 2 46506 97.8665 336.3016 0003875 291.6014 68.4811 15.29238856287545 NETSAT-2 1 46507U 20068X 25351.90389167 .00016433 00000+0 44951-3 0 9999 2 46507 97.8602 341.0296 0002501 292.6936 67.4043 15.37446350287803 WILDTRACKCUBE-SIMBA 1 47941U 21022K 25351.95678226 .00084098 00000+0 75723-3 0 9998 2 47941 97.4058 262.9097 0005362 13.9231 346.2177 15.67924872262900 GREENCUBE (IO-117) 1 53109U 22080E 25351.40093974 -.00000003 00000+0 00000+0 0 9994 2 53109 70.1587 1.4598 0009167 326.8109 33.1975 6.42583171 80381 SITRO-AIS 5 (KATYS) 1 57176U 23091L 25351.96708133 .00009886 00000+0 40274-3 0 9994 2 57176 97.5345 49.5091 0013195 27.3456 332.8473 15.24603275136684 SITRO-AIS 6 (CHIRKIN) 1 57192U 23091AC 25351.95397396 .00005380 00000+0 23110-3 0 9991 2 57192 97.5346 49.3515 0013313 29.8023 330.3969 15.23038230136675 SITRO-AIS 8 (ANOKHIN) 1 57193U 23091AD 25351.93019672 .00012029 00000+0 46202-3 0 9993 2 57193 97.5339 50.4319 0012370 25.5480 334.6368 15.26527819136742 SITRO-AIS 7 (FARTUSHNIY) 1 57194U 23091AE 25351.99242088 .00005685 00000+0 24551-3 0 9992 2 57194 97.5346 49.2892 0013213 30.5059 329.6944 15.22831718136676 SITRO-AIS 10 (BURDAEV) 1 57199U 23091AK 25351.95818465 .00013718 00000+0 45892-3 0 9998 2 57199 97.5355 53.9375 0008017 8.5300 351.6075 15.31069038136969 SITRO-AIS 9 (SHCHUKIN) 1 57201U 23091AM 25351.93850781 .00014598 00000+0 49261-3 0 9998 2 57201 97.5355 53.7599 0008035 8.7319 351.4060 15.30774076136956 SITRO-AIS 12 (SMIRENNIY) 1 57204U 23091AQ 25351.95937385 .00013770 00000+0 46169-3 0 9994 2 57204 97.5364 54.1495 0007772 2.4153 357.7124 15.30996982136977 SITRO-AIS 11 (SHEFFER) 1 57208U 23091AU 25351.94895031 .00014557 00000+0 48373-3 0 9991 2 57208 97.5362 54.2921 0007655 1.9942 358.1328 15.31273859136988 SITRO-AIS 25 1 59066U 24039R 25351.97204367 .00005075 00000+0 41331-3 0 9999 2 59066 95.3961 110.6726 0148150 240.6418 117.9942 14.91487615 97698 SITRO-AIS 26 1 59067U 24039S 25351.95065093 .00006299 00000+0 51433-3 0 9992 2 59067 95.3960 110.5891 0148363 241.0999 117.5274 14.91314964 97684 SITRO-AIS 27 1 59068U 24039T 25351.96899388 .00005338 00000+0 43296-3 0 9997 2 59068 95.3962 110.7954 0147562 240.0322 118.6186 14.91686677 97708 SITRO-AIS 28 1 59071U 24039U 25351.95077066 .00006108 00000+0 49459-3 0 9994 2 59071 95.3960 110.8203 0147403 239.9489 118.7048 14.91729108 97708 GRBBETA 1 60237U 24128C 25351.73515784 .00004216 00000+0 30203-3 0 9994 2 60237 61.9892 132.0792 0056057 97.5581 263.1884 15.04806048 78943 OOV-CUBE (TUBSAT-30) 1 60240U 24128F 25351.87425099 .00002479 00000+0 19942-3 0 9998 2 60240 61.9938 137.3103 0058349 95.2949 265.4803 15.01640295 78876 ROBUSTA-3A (MEDITERRAN*) 1 60243U 24128J 25351.63875170 .00006544 00000+0 41872-3 0 9998 2 60243 61.9859 128.7317 0055935 91.8250 268.9251 15.08291037 79001 LASARSAT 1 62391U 24247Q 25351.61941806 .00018643 00000+0 55024-3 0 9991 2 62391 44.9762 193.6888 0002760 180.3608 179.7276 15.34759247 55319 CROCUBE 1 62394U 24247T 25351.56717924 .00020844 00000+0 60064-3 0 9996 2 62394 44.9733 193.2380 0003931 174.1846 185.9086 15.35442812 55315